[[{"header":{"parameterUnit":"m.s-1","parameterCategory":1,"la1":30.2991,"la2":30.254,"lo1":-89.0895,"lo2":-89.0444,"dy":0.0017,"dx":0.0017,"nx":28,"ny":28,"refTime":"2025-06-07T21:00:00:Z","depth":0,"parameterNumber":2,"parameterNumberName":"U-component_of_WINDS"},"data":[0,0,0,0,0,0,0,0,0,0,0,0,0,0,0,0,0,0,0,0,0,0,0,0,0,0,0,0,0,0,0,0,0,0,0,0,0,0,0,0,0,0,0,0,0,0,0,0,0,0,0,0,0,0,0,0,0,0,5.9973,5.9974,0,6.0136,6.0138,6.0139,6.0091,6.0088,6.0084,6.0081,6.0248,6.0256,6.0263,0,0,0,0,0,0,0,0,0,0,0,0,0,5.9617,5.9624,5.9972,5.9975,5.9977,6.0135,6.0138,6.014,6.0092,6.0088,6.0083,6.008,6.0246,6.0255,6.0264,0,0,0,0,0,0,0,0,0,0,0,0,0,5.9775,5.9626,5.9972,5.9972,5.9973,6.0135,6.0138,6.0141,6.0093,6.0087,6.0082,6.0078,6.0243,6.0254,6.0265,6.0437,0,0,6.03,6.0305,0,0,0,0,0,0,0,0,5.9766,5.9788,5.997,5.9972,5.9974,6.0088,6.0073,6.024,6.0094,6.0047,6.0081,6.0075,6.0199,6.0214,6.0255,6.0445,6.0452,6.0301,6.0308,6.0313,6.0316,0,0,0,0,0,0,0,5.9755,5.9781,6.0037,5.9972,5.9975,5.9962,5.9979,6.0105,6.015,6.0051,6.0048,6.0068,6.0199,6.0244,6.0259,6.0454,6.0301,6.0311,6.0318,6.0322,6.0789,6.0794,0,0,0,0,0,0,5.9743,5.9772,6.0032,6.0042,5.9855,5.9973,5.9992,6.0056,6.0148,6.0157,6.0072,6.0065,6.0227,6.0246,6.0265,6.0468,6.0313,6.0323,6.033,6.0783,6.079,6.0796,0,0,0,0,0,0,5.9735,5.9766,6.0025,5.9906,5.9938,5.9985,6.0058,6.0062,6.0108,6.0164,6.0172,6.011,6.0224,6.0249,6.0393,6.0474,6.0328,6.0339,6.0777,6.0785,6.0793,6.088,0,0,0,0,0,0,5.9725,5.9764,5.9831,5.9908,5.9945,6.0152,6.0063,6.0069,6.0127,6.012,6.0202,6.0211,6.0222,6.0377,6.0405,6.0487,6.0348,6.077,6.078,6.079,6.087,6.089,6.0907,0,0,0,0,0,5.9713,5.985,5.9834,5.9866,6.0029,6.0157,6.0178,6.0189,6.0134,6.02,6.0236,6.0208,6.0461,6.0392,6.0423,6.051,6.0764,6.0777,6.0789,6.0861,6.0886,6.0907,0,0,0,0,0,0,5.9781,5.986,5.9844,6.001,6.0077,6.0149,6.0233,6.0215,6.0299,6.0288,6.0298,6.0317,6.0464,6.0502,6.0424,6.0679,6.0604,6.0624,6.0648,6.0672,6.0691,6.0677,6.0357,0,0,0,0,0,5.9815,5.9913,5.9977,6.0117,6.0152,6.0187,6.0243,6.0245,6.0315,6.0343,6.039,6.0459,6.0553,6.0615,6.0706,6.0876,6.0891,6.095,6.0969,6.0984,6.1,6.1088,6.1114,6.0837,6.0837,6.0837,0,0,5.9887,5.9942,6.0004,6.0132,6.0185,6.0284,6.0211,6.0321,6.0394,6.036,6.0498,6.0535,6.0612,6.0769,6.0841,6.0805,6.108,6.1,6.1012,6.1019,6.1104,6.113,6.1153,6.0845,6.0844,6.0842,0,0,6.0068,6.0122,6.0242,6.0296,6.0376,6.0398,6.0427,6.0501,6.0523,6.0663,6.0638,6.0726,6.089,6.0944,6.0993,6.1193,6.1168,6.1222,6.1319,6.1405,6.1427,6.1446,6.1513,6.1538,6.1238,6.1239,6.1239,0,6.0148,6.0298,6.0307,6.0418,6.0473,6.0446,6.0567,6.0619,6.0724,6.0763,6.0722,6.0924,6.0974,6.1142,6.119,6.1232,6.1263,6.1212,6.1423,6.1442,6.1461,6.1525,6.155,6.1244,6.1244,6.1243,6.1242,0,6.0389,6.0493,6.0581,6.0682,6.0748,6.0864,6.0888,6.0954,6.095,6.0976,6.1116,6.1176,6.1276,6.1316,6.1315,6.1483,6.1457,6.142,6.1345,6.1492,6.1553,6.1578,6.1252,6.125,6.1249,6.1247,0,0,6.0617,6.072,6.0752,6.0796,6.0881,6.0961,6.1075,6.1172,6.1226,6.13,6.1393,6.1531,6.1495,6.1551,6.1555,6.1631,6.178,6.1584,6.1586,6.1615,6.1965,6.199,6.2018,6.1766,6.1771,6.1774,6.1957,0,6.0803,6.1001,6.1012,6.1192,6.1286,6.1261,6.1359,6.1421,6.1448,6.1531,6.1561,6.1657,6.1605,6.1638,6.1713,6.1746,6.185,6.1734,6.185,6.1854,6.1828,6.2051,6.2078,6.2248,6.1981,6.1985,6.1988,0,6.1046,6.1125,6.1314,6.1382,6.1422,6.151,6.1598,6.1679,6.1748,6.1762,6.1823,6.1815,6.1929,6.1852,6.2007,6.1928,6.1976,6.2,6.2007,6.2015,6.1927,6.2061,6.2302,6.2326,6.2026,6.2023,6.202,0,6.1188,6.1342,6.1474,6.1513,6.1597,6.1659,6.1697,6.1761,6.1818,6.1895,6.1931,6.2021,6.207,6.2139,6.2154,6.2098,6.2308,6.2234,6.2321,6.232,6.2364,6.236,6.2612,6.2401,6.2401,6.24,6.24,0,6.1392,6.1508,6.1539,6.1619,6.1747,6.1758,6.1884,6.1917,6.1974,6.206,6.2045,6.2125,6.2143,6.2227,6.224,6.2364,6.2388,6.24,6.2401,6.24,6.2397,6.2429,6.2416,6.2407,6.2406,6.2404,6.2403,0,6.1572,6.1598,6.1739,6.1807,6.1826,6.1917,6.1974,6.2051,6.2075,6.2183,6.221,6.2248,6.2345,6.2369,6.2485,6.2494,6.264,6.2632,6.2616,6.2614,6.2698,6.2689,6.2976,6.3013,6.2782,6.2784,6.2786,0,6.1699,6.1786,6.1863,6.1919,6.1959,6.205,6.2107,6.2121,6.218,6.2264,6.233,6.2425,6.2502,6.2658,6.2696,6.2784,6.2775,6.287,6.2789,6.2782,6.2772,6.2765,6.2772,6.2885,6.2887,6.2889,6.2891,0,6.1919,6.1927,6.201,6.2097,6.2165,6.2235,6.2301,6.2347,6.2369,6.2437,6.2536,6.2595,6.2713,6.2806,6.2895,6.2932,6.2914,6.2917,6.2941,6.2937,6.2923,6.2928,6.2654,6.2909,6.2907,6.2906,6.2905,6.2904,6.2074,6.2149,6.2213,6.2305,6.2356,6.2418,6.2492,6.2525,6.2607,6.2703,6.2707,6.2813,6.2877,6.2993,6.3036,6.3118,6.3089,6.3125,6.3134,6.3141,6.3147,6.2913,6.3135,6.3135,6.3134,6.3134,6.3133,0,6.229,6.233,6.2414,6.2506,6.2578,6.2556,6.2627,6.2688,6.2781,6.2843,6.2918,6.3029,6.312,6.3164,6.3253,6.331,6.3304,6.3332,6.3326,6.3335,6.317,6.3138,6.3336,6.3336,6.3336,6.3336,6.3335,6.3335,6.2411,6.2535,6.2551,6.27,6.2739,6.2842,6.2884,6.294,6.2988,6.3113,6.3188,6.3216,6.327,6.3362,6.3443,6.3453,6.3485,6.3517,6.3523,6.3368,6.3347,6.3327,6.3297,6.3525,6.3525,6.368,6.3682,6.3683]},{"header":{"parameterUnit":"m.s-1","parameterCategory":1,"la1":30.2991,"la2":30.254,"lo1":-89.0895,"lo2":-89.0444,"dy":0.0017,"dx":0.0017,"nx":28,"ny":28,"refTime":"2025-06-07T21:00:00:Z","depth":0,"parameterNumber":3,"parameterNumberName":"V-component_of_WINDS"},"data":[0,0,0,0,0,0,0,0,0,0,0,0,0,0,0,0,0,0,0,0,0,0,0,0,0,0,0,0,0,0,0,0,0,0,0,0,0,0,0,0,0,0,0,0,0,0,0,0,0,0,0,0,0,0,0,0,0,0,3.7735,3.7736,0,3.7848,3.7849,3.785,3.7829,3.7827,3.7825,3.7823,3.7937,3.7941,3.7946,0,0,0,0,0,0,0,0,0,0,0,0,0,3.7498,3.7502,3.7735,3.7736,3.7738,3.7847,3.7849,3.785,3.7829,3.7827,3.7825,3.7822,3.7935,3.7941,3.7947,0,0,0,0,0,0,0,0,0,0,0,0,0,3.7605,3.7504,3.7735,3.774,3.7742,3.7847,3.7849,3.7851,3.783,3.7827,3.7824,3.7821,3.7933,3.794,3.7948,3.8053,0,0,3.797,3.7973,0,0,0,0,0,0,0,0,3.7599,3.7613,3.7738,3.774,3.7742,3.7821,3.7807,3.7919,3.7831,3.7797,3.7823,3.782,3.7901,3.791,3.7938,3.8058,3.8063,3.7971,3.7975,3.7978,3.798,0,0,0,0,0,0,0,3.7591,3.7608,3.7779,3.774,3.7742,3.7736,3.7748,3.7828,3.7864,3.7799,3.7798,3.7812,3.7901,3.7931,3.7941,3.8065,3.797,3.7977,3.7981,3.7984,3.8275,3.8278,0,0,0,0,0,0,3.7582,3.7602,3.7776,3.7783,3.7662,3.7743,3.7756,3.7799,3.7863,3.787,3.7814,3.781,3.792,3.7932,3.7945,3.8071,3.7978,3.7985,3.7989,3.8272,3.8276,3.8279,0,0,0,0,0,0,3.7577,3.7598,3.7771,3.7692,3.7714,3.775,3.7798,3.7803,3.7833,3.7874,3.788,3.7839,3.7918,3.7934,3.8026,3.8075,3.7988,3.7995,3.8268,3.8273,3.8278,3.8326,0,0,0,0,0,0,3.7571,3.7596,3.7638,3.7693,3.7718,3.7852,3.7801,3.7807,3.7846,3.7842,3.7899,3.7905,3.7917,3.8015,3.8033,3.8083,3.8001,3.8264,3.827,3.8276,3.832,3.8332,3.8342,0,0,0,0,0,3.7562,3.7647,3.764,3.7661,3.7771,3.7855,3.7869,3.7881,3.785,3.7891,3.7917,3.7904,3.8066,3.8025,3.8045,3.8098,3.8261,3.8268,3.8276,3.8315,3.833,3.8342,0,0,0,0,0,0,3.7596,3.7655,3.7648,3.7753,3.7799,3.7851,3.7904,3.7896,3.7952,3.7946,3.7958,3.7971,3.8064,3.809,3.8042,3.8202,3.8159,3.8171,3.8182,3.8196,3.8207,3.8199,3.8007,0,0,0,0,0,3.7616,3.768,3.7727,3.7816,3.7839,3.7868,3.7905,3.791,3.7958,3.7977,3.8011,3.8057,3.8118,3.8159,3.8218,3.8323,3.8335,3.837,3.8381,3.8389,3.84,3.8456,3.8471,3.8304,3.8304,3.8304,0,0,3.7658,3.7697,3.7737,3.7824,3.786,3.7925,3.7884,3.7955,3.8003,3.7988,3.8077,3.8102,3.8155,3.8253,3.8299,3.8278,3.8448,3.8399,3.8406,3.8411,3.8465,3.8481,3.8495,3.8309,3.8308,3.8307,0,0,3.7766,3.7804,3.7881,3.7918,3.7973,3.7991,3.8009,3.8063,3.8079,3.8168,3.8158,3.8214,3.832,3.8357,3.839,3.8511,3.8499,3.8529,3.8587,3.8641,3.8654,3.8666,3.8708,3.8723,3.8539,3.8539,3.8539,0,3.7811,3.791,3.7921,3.7993,3.803,3.8019,3.8096,3.8131,3.8203,3.8229,3.8205,3.8336,3.8371,3.8477,3.8507,3.8534,3.8554,3.8523,3.8652,3.8664,3.8675,3.8715,3.873,3.8543,3.8542,3.8542,3.8542,0,3.7961,3.8029,3.8084,3.8154,3.8198,3.8272,3.8293,3.8335,3.8336,3.8356,3.8446,3.8487,3.8553,3.8578,3.858,3.8685,3.867,3.8649,3.8605,3.8694,3.8731,3.8747,3.8547,3.8546,3.8545,3.8544,0,0,3.8096,3.8169,3.8189,3.822,3.828,3.8332,3.8404,3.8469,3.8505,3.8554,3.8614,3.8703,3.8683,3.8721,3.8726,3.8774,3.8865,3.8747,3.8748,3.8766,3.8981,3.8996,3.9014,3.8858,3.8861,3.8863,3.8976,0,3.8209,3.8338,3.835,3.8465,3.8527,3.8517,3.8579,3.8622,3.8642,3.8697,3.8718,3.8781,3.875,3.8772,3.8819,3.8844,3.8908,3.8836,3.8912,3.8915,3.89,3.9034,3.9051,3.9156,3.8991,3.8994,3.8995,0,3.836,3.8413,3.8535,3.8584,3.861,3.8667,3.8726,3.8779,3.8826,3.8837,3.8878,3.8876,3.8949,3.8903,3.9002,3.8953,3.8985,3.9001,3.9005,3.9013,3.8961,3.9044,3.919,3.9205,3.9019,3.9017,3.9015,0,3.8444,3.8547,3.8633,3.8659,3.8719,3.8759,3.8785,3.8829,3.8867,3.8918,3.8943,3.9002,3.9034,3.9079,3.9093,3.9058,3.9191,3.9146,3.9201,3.9201,3.923,3.9228,3.9382,3.9251,3.9251,3.9251,3.925,0,3.857,3.8645,3.8671,3.8724,3.8806,3.8818,3.8899,3.8923,3.8962,3.9018,3.9012,3.9064,3.9079,3.9134,3.9145,3.9225,3.924,3.9249,3.9251,3.925,3.9249,3.9271,3.9264,3.9255,3.9254,3.9253,3.9253,0,3.8679,3.87,3.8792,3.8841,3.8855,3.8913,3.8954,3.9004,3.9022,3.9093,3.911,3.9139,3.9203,3.9221,3.9297,3.9304,3.9398,3.9394,3.9382,3.9382,3.9436,3.943,3.961,3.9633,3.9487,3.9488,3.949,0,3.8758,3.8815,3.8869,3.8906,3.8935,3.8995,3.9033,3.9046,3.9086,3.9142,3.9185,3.9248,3.9299,3.9401,3.9428,3.9486,3.9482,3.9541,3.9491,3.9487,3.9482,3.9478,3.9483,3.955,3.9552,3.9553,3.9554,0,3.8895,3.8902,3.8958,3.9017,3.9063,3.911,3.9155,3.9185,3.9204,3.9249,3.9314,3.9354,3.9431,3.9493,3.9552,3.9577,3.9569,3.957,3.9585,3.9584,3.9575,3.958,3.9408,3.9566,3.9565,3.9564,3.9563,3.9563,3.899,3.904,3.9086,3.9147,3.9183,3.9224,3.9273,3.9297,3.9352,3.9417,3.9421,3.9491,3.9534,3.9612,3.9641,3.9695,3.9677,3.97,3.9706,3.9711,3.9715,3.9567,3.9705,3.9705,3.9705,3.9705,3.9704,0,3.9126,3.9155,3.9212,3.9275,3.9323,3.9311,3.9359,3.94,3.9462,3.9504,3.9554,3.9628,3.9688,3.9719,3.9778,3.9815,3.9812,3.983,3.9827,3.9833,3.9728,3.9708,3.9831,3.9831,3.9831,3.9831,3.9831,3.9831,3.9203,3.9285,3.9298,3.9397,3.9425,3.9494,3.9523,3.956,3.9594,3.9677,3.9726,3.9746,3.9783,3.9844,3.9898,3.9905,3.9927,3.9947,3.9952,3.9853,3.984,3.9828,3.981,3.9951,3.9951,4.0052,4.0053,4.0053]}]]